This demonstration page uses our WeatherBlox Daily Observations layout. Learn more.

38.89511, -77.03637

Hourly Observations for November 30, 2017

Temp ( °F °C ) Dew Point ( °F °C ) Humidity (%) Winds ( mph kmh ) Pressure ( in mb ) Visibility ( mi km ) Precip ( " mm )
12:52 am 00:52 Mostly Cloudy 47 8.3 31 -0.6 54 54 N 5 7 30.27 1025 10 16.09344 0 0
1:52 am 01:52 Mostly Cloudy 46 7.8 31 -0.6 56 56 NNE 5 7 30.27 1025 10 16.09344 0 0
2:52 am 02:52 Cloudy 46 7.8 30 -1.1 54 54 NNE 7 11 30.27 1025 10 16.09344 0 0
3:52 am 03:52 Cloudy 45 7.2 31 -0.6 58 58 NNE 7 11 30.3 1026 10 16.09344 0 0
4:52 am 04:52 Cloudy 44 6.7 33 0.6 65 65 ENE 6 9 30.3 1026 10 16.09344 0 0
5:52 am 05:52 Cloudy 44 6.7 33 0.6 65 65 NE 5 7 30.3 1026 10 16.09344 0 0
6:52 am 06:52 Mostly Cloudy 43 6.1 32 0 65 65 NNE 5 7 30.3 1026 10 16.09344 0 0
7:52 am 07:52 Mostly Cloudy 43 6.1 32 0 65 65 NE 8 13 30.27 1025 10 16.09344 0 0
8:52 am 08:52 Mostly Cloudy 46 7.8 33 0.6 61 61 NE 6 9 30.27 1025 10 16.09344 0 0
9:52 am 09:52 Partly Cloudy 49 9.4 34 1.1 56 56 NNE 6 9 30.27 1025 10 16.09344 0 0
10:52 am 10:52 Mostly Cloudy 51 10.6 36 2.2 56 56 NNE 3 6 30.24 1024 10 16.09344 0 0
11:52 am 11:52 Partly Cloudy 54 12.2 40 4.4 59 59 Calm 30.21 1023 10 16.09344 0 0
12:52 pm 12:52 Mostly Cloudy 56 13.3 41 5 57 57 S 6 9 30.15 1021 10 16.09344 0 0
1:52 pm 13:52 Mostly Cloudy 59 15 43 6.1 56 56 S 6 9 30.12 1020 10 16.09344 0 0
2:52 pm 14:52 Mostly Cloudy 59 15 45 7.2 60 60 S 9 15 30.09 1019 10 16.09344 0 0
3:52 pm 15:52 Mostly Cloudy 58 14.4 45 7.2 62 62 SSW 9 15 30.06 1018 10 16.09344 0 0
4:52 pm 16:52 Mostly Cloudy 56 13.3 45 7.2 67 67 SSW 6 9 30.06 1018 10 16.09344 0 0
5:52 pm 17:52 Mostly Cloudy 53 11.7 45 7.2 74 74 SSE 7 11 30.03 1017 10 16.09344 0 0
6:52 pm 18:52 Mostly Cloudy 52 11.1 46 7.8 80 80 S 6 9 30.03 1017 10 16.09344 0 0
7:52 pm 19:52 Cloudy 54 12.2 47 8.3 77 77 S 6 9 30.03 1017 10 16.09344 0 0
8:52 pm 20:52 Cloudy 53 11.7 47 8.3 80 80 SSE 3 6 30.03 1017 10 16.09344 0.001 0.001
9:16 pm 21:16 Cloudy with Light Rain 52 11.1 47 8.3 83 83 S 3 6 30.06 1018 10 16.09344 0.001 0.001
9:52 pm 21:52 Cloudy with Light Rain 52 11.1 48 8.9 86 86 S 6 9 30.03 1017 10 16.09344 0.01 0.254
10:52 pm 22:52 Cloudy 52 11.1 48 8.9 86 86 Calm 30.03 1017 10 16.09344 0.001 0.001
11:52 pm 23:52 Mostly Cloudy 52 11.1 48 8.9 86 86 S 3 6 30.03 1017 10 16.09344 0 0

Powered by AerisWeather